OBJECT C, 63293

Orbit data source: Space-Track

You're viewing an Uncataloged Satellite

Recently launched and/or uncataloged satellites may have evolving metadata. Metadata may include but not limited to: Owner, Maufacturer, Bus, Motor, and Mission.

OBJECT C, 63293 is a satellite in SSO that was launched on Mon, 17 Mar 2025 UTC via a GUSHENXING 1 launch vehicle from the Jiuquan Satellite Launch Center, China (JSC). Unknown objects in Earth's orbit typically refer to objects detected orbiting the Earth but have not yet been identified or cataloged. These objects could be anything from previously untracked satellites, spent rocket stages, debris from satellite collisions, or even natural meteoroids temporarily captured by Earth's gravity.

Loading next visibility...
Identifier
63293, 2025-055C
Orbit
SSO
Last TLE update
6 hours ago
Origin
Unknown
Manufacturer
Changguang WJ
Mission
Operational Commercial Meteo Radio Occ.
Bus & Motor
YY-1, Unknown motor
Mass
~50 kg wet, ~50 kg dry
Launch date (UTC)
2025-03-17 (2 months ago)
Launch vehicle
GUSHENXING 1
Launch site
Jiuquan Satellite Launch Center, China (JSC)
Object type
Unknown
Shape & HBR
Box + 1 Pan, 5 m
Radar Cross Section
5.339 m², Medium (>0.1 m² and < 1m²)

Expand to show TLE details & history

TLE from 6 hours ago
0 OBJECT C
1 63293U 25055C   25140.43856947  .00007299  00000-0  43565-3 0  9991
2 63293  97.6084 275.4208 0014443  76.9758 283.3083 15.11340806  9640
Epoch: 2025-05-20T10:31Z
TLE epoch observation values (Epoch: 2025-05-20T10:31:32.402Z)
Latitude
-0.00004°
Longitude
-120.80103°
Altitude
532.898 km
Speed
7.598 km/s
True Right ascension
18h 21m 40s
True Declination
0° 00' 00"
Sunlit
Object was in full shadow at epoch
Visualization orbit readout
Latitude
-33.95762°
Longitude
-115.41108°
Altitude
548.406 km
Speed
7.585 km/s
Apparent Right ascension
16h 24m 53s
Apparent Declination
-43° 21' 31"
Sunlit
Object is in full shadow
Visualization observer readout
Local Sidereal Time
01:37:44
Azimuth
249.752° W
Elevation
-58.908°
Doppler factor
1
Orbital elements
Apogee altitude
539.072 km
Perigee altitude
519.12 km
Semi-major axis
6,907.233 km
Eccentricity
0.00144
Inclination
97.6084°
RAAN
275.4208°
Arg. of periapsis
76.9758°
True anomaly
Unknown
Mean anomaly
283.3083°
Eccentric anomaly
Unknown
Mean motion
3.78083 °/min
Orbital period
95.22 mins
BSTAR
0.00043565
Loading maneuver chart data...
Loading SW <> Apogee altitude chart data...
Loading historical data...
Loading historical data...
Loading historical data...
Loading historical data...
Loading historical data...
Loading historical data...
Loading historical data...

OBJECT C Visibility forecast

Observer location: undefined°, undefined°

Span
Click to sort rows by Start time (UTC) header in descending order
Start Az.
Max El. time (UTC)
Max El. Az.
Max El.
End time (UTC)
End Az.
5 mins2025-05-20 22:13:51.182Z344.167° N2025-05-20 22:15:51.182Z268.401° W35.505°2025-05-20 22:18:51.182Z213.627° SW
5 mins2025-05-21 08:54:51.182Z157.792° S2025-05-21 08:56:51.182Z101.179° ESE43.77°2025-05-21 08:59:51.182Z352.815° N
|